Volver al catálogo

IRIDE-MS1-EAG2-13

ActivoCienciaSSO
NORAD 68450·PAYLOAD·🇮🇹 Italy

Lanzado Mar 30, 2026 desde Vandenberg Space Force Base

Loading…

Próximos Pases (próximas 24 horas)

TLE

ActualizadoSource: Space-Track

Época: Sep 14, 2026, 15:11 UTC

1 68450U 26067AL  26257.63277461  .00006495  00000-0  30628-3 0  9998
2 68450  97.4643 215.0306 0004376  78.9624 281.2103 15.19811791 25525

Sigue IRIDE-MS1-EAG2-13 en tiempo real con AllMySat

Download on the App Store